ECMWFFLT2_500_spd_057.txt.gz
Wind_Speed
26 27 27 27 25 24 25 25 24 22 20 18 17 17 17 17 16 15 15 13 13 14 14 14 15 16 15 15 15 14 13 12 11 10 9 7 6 6 7 8 9 9 8 9 9 10 12 13 11 8 8 9 8 5 5 4 4 4 5 6 5 5
29 30 28 26 24 24 26 26 26 24 20 17 16 16 16 16 16 16 14 13 14 15 15 15 15 16 15 15 16 16 14 12 11 10 9 7 7 7 7 8 8 9 8 8 9 10 12 13 10 9 10 10 7 6 7 6 4 3 5 5 5 5
23 23 19 18 20 21 22 23 24 23 20 17 15 16 16 16 17 15 14 14 15 15 15 15 15 15 15 15 16 16 13 11 10 9 8 8 7 7 7 8 8 9 8 8 11 12 12 12 11 10 10 9 7 6 7 7 5 4 5 5 5 6
13 11 12 15 18 18 19 20 21 19 17 17 16 16 16 16 17 15 14 14 14 15 15 15 15 15 15 15 16 14 13 11 10 8 8 8 8 8 8 8 9 9 8 8 11 11 10 11 12 11 10 9 6 5 5 7 6 3 4 5 5 6
20 16 14 15 17 18 20 20 18 15 12 13 14 14 15 16 17 16 15 15 14 14 14 15 15 14 14 14 14 13 13 11 9 8 8 8 8 9 9 9 9 9 8 8 7 8 8 11 13 12 11 9 5 3 5 7 5 3 4 6 6 7
25 22 18 18 19 18 18 17 14 13 11 10 11 11 13 16 17 16 15 15 15 14 15 14 13 13 12 12 12 12 12 10 8 8 8 8 9 9 9 9 8 8 8 7 7 8 10 12 12 11 10 9 4 3 7 8 5 4 6 6 6 7
24 23 22 22 21 18 15 15 14 14 14 13 13 13 13 15 18 17 15 14 14 14 15 14 12 11 10 11 12 12 11 8 7 7 8 8 9 9 9 8 8 7 7 8 8 10 11 12 10 9 9 8 4 6 8 9 8 6 6 6 6 7
22 21 21 20 20 17 14 14 15 16 16 16 18 17 15 15 17 17 15 14 14 14 14 14 14 13 12 12 12 11 9 7 7 7 8 8 9 8 8 7 7 7 7 7 9 11 11 9 8 8 8 8 5 6 6 9 11 8 6 7 8 8
22 19 18 17 18 17 15 14 15 16 17 18 19 19 18 16 16 17 16 14 14 15 15 15 15 15 13 13 12 10 8 7 8 8 8 8 8 7 7 7 7 7 6 7 8 10 9 6 6 5 7 9 5 5 8 8 10 10 9 9 9 9
24 18 15 16 17 18 18 17 17 17 18 19 20 20 19 17 16 17 16 15 15 15 15 14 14 15 13 13 12 10 8 7 7 8 8 8 7 7 7 7 7 6 6 6 7 9 7 4 4 4 7 9 6 5 7 6 7 10 11 11 9 9
25 19 14 14 17 18 19 20 20 20 21 22 21 20 19 19 18 17 16 15 15 15 14 13 13 13 12 12 11 9 8 7 7 8 8 8 7 6 6 6 5 5 5 5 7 8 5 2 3 4 6 8 7 6 5 4 8 10 10 10 10 11
26 21 15 15 17 18 20 21 22 23 23 24 22 20 20 20 19 17 16 15 14 14 13 12 12 11 11 11 11 8 6 6 7 8 8 8 7 6 5 5 4 4 5 6 7 7 3 2 2 4 6 6 6 7 5 5 8 8 7 8 9 11
27 23 17 17 20 20 20 22 22 23 23 24 23 22 20 19 18 17 16 15 14 13 13 12 12 12 12 12 10 7 6 6 7 8 8 7 6 5 4 4 4 5 6 6 6 5 1 1 2 5 6 4 5 5 5 5 6 7 7 8 9 10
27 24 19 19 22 22 22 23 23 22 22 23 24 24 21 18 17 17 16 15 13 12 12 12 12 13 13 13 11 8 6 7 8 9 8 7 6 5 4 4 5 6 6 6 5 4 1 1 2 4 5 5 5 4 4 6 6 7 8 8 9 9
28 25 21 22 24 24 23 24 24 23 23 24 24 23 20 17 16 16 16 15 13 11 10 10 11 12 14 12 10 9 6 7 9 9 8 7 6 5 4 5 5 5 5 5 4 3 2 2 2 3 4 4 4 3 4 5 6 8 8 8 8 6
29 26 24 23 25 26 25 25 25 23 24 26 25 22 19 17 17 17 16 15 13 12 11 10 10 12 13 12 10 9 8 8 9 9 8 6 5 5 5 4 5 5 5 4 4 3 3 1 2 2 2 3 4 4 4 5 7 8 8 7 6 5
29 27 25 25 26 27 26 26 25 23 25 26 24 21 20 18 18 17 16 14 14 14 13 10 11 12 12 13 11 10 9 9 9 8 7 6 5 5 5 4 5 5 4 4 4 4 2 1 2 2 2 3 4 5 5 6 7 8 7 6 6 5
27 25 24 24 25 26 24 24 23 22 22 22 22 21 20 19 18 17 16 15 15 15 14 12 13 12 12 14 12 11 10 10 8 8 7 7 6 6 5 4 5 5 5 5 5 4 3 2 2 2 1 3 4 5 5 6 8 8 6 6 6 4
25 23 23 22 24 24 21 20 22 23 20 18 20 21 20 19 17 17 15 15 14 14 15 13 13 13 12 13 13 10 9 9 8 7 8 7 7 6 5 5 6 6 6 6 6 6 4 3 3 3 1 2 4 5 6 6 8 8 7 7 7 6
23 22 21 21 24 22 19 20 22 24 22 18 21 21 20 19 16 15 14 13 13 12 13 12 12 13 13 13 12 9 8 8 7 8 8 7 6 6 6 7 7 7 7 7 7 7 5 4 4 4 3 2 3 5 6 6 6 6 6 6 6 6
21 20 19 21 23 21 19 22 24 25 24 21 22 22 21 19 15 15 14 13 13 13 13 12 13 13 14 14 11 10 10 8 8 9 8 7 6 6 7 7 7 7 7 7 8 7 6 5 5 5 4 4 3 4 4 4 4 4 4 4 5 5
21 20 19 19 19 19 20 23 24 25 25 21 21 21 21 19 16 15 14 14 14 13 13 13 12 13 14 14 11 10 10 9 8 9 8 8 7 7 7 7 6 6 6 7 7 7 7 6 6 5 5 4 4 4 3 3 3 3 3 2 3 4
21 20 20 18 16 18 20 22 23 22 21 20 20 21 21 20 19 16 15 15 15 13 13 13 11 12 14 14 12 10 9 9 9 10 9 8 7 7 7 6 6 6 6 7 7 7 7 7 6 5 5 5 4 3 3 3 2 2 2 2 2 2
21 20 20 18 16 18 19 20 22 22 20 18 20 22 20 20 19 16 16 16 15 13 14 13 12 13 13 13 12 9 9 10 10 10 9 8 8 7 7 6 6 6 6 7 7 8 8 8 7 6 5 5 5 4 3 3 2 1 1 1 1 1
20 20 20 18 16 16 17 18 20 22 20 17 20 22 20 19 18 16 17 16 15 13 13 13 11 12 13 12 10 9 10 10 9 10 9 8 8 7 7 6 6 6 6 6 7 8 8 8 8 7 6 5 5 5 4 3 2 1 1 1 1 1
20 21 20 18 15 14 15 17 18 21 21 20 21 21 19 19 19 18 17 16 14 13 13 13 12 13 13 12 10 10 10 9 9 9 9 8 7 6 6 5 5 6 6 6 7 8 8 8 8 7 6 5 5 6 6 5 4 3 3 2 2 2
20 22 21 19 18 15 13 15 18 21 22 21 21 20 19 20 20 18 16 15 15 15 15 14 14 14 13 12 11 10 10 9 9 9 9 8 7 6 6 5 5 6 7 7 7 8 8 8 8 7 7 5 6 7 6 6 5 4 4 3 3 2
20 23 23 22 21 19 15 13 17 22 21 19 20 21 21 21 19 17 16 15 16 17 17 15 14 13 12 12 11 10 10 10 10 9 9 8 7 7 7 6 7 8 8 8 8 8 9 8 7 7 7 6 6 7 6 5 5 4 4 4 4 4
22 24 24 25 24 22 18 14 16 21 19 17 20 21 22 21 20 18 18 16 17 19 17 15 13 13 12 12 11 10 10 11 11 10 9 9 8 8 7 8 8 9 9 9 9 8 9 8 8 8 8 7 7 7 7 6 6 6 5 5 5 5
24 25 24 25 24 22 20 17 16 18 19 17 17 18 19 21 20 19 18 17 18 18 16 14 12 12 12 12 12 11 11 12 12 11 10 9 9 9 9 10 10 10 10 10 9 9 8 8 8 8 8 7 7 8 8 8 8 8 8 7 6 7
24 25 24 24 23 21 21 19 17 17 19 17 16 15 17 18 19 18 17 15 16 17 16 13 12 12 13 13 13 12 13 13 12 11 10 10 10 10 10 11 11 10 10 10 9 8 8 7 8 8 8 8 8 9 10 10 10 10 9 8 8 8
23 22 21 22 21 21 23 19 15 15 16 17 16 16 16 16 17 16 16 15 14 15 15 13 12 13 14 14 14 13 13 12 12 11 10 10 11 11 11 11 11 10 10 10 9 8 8 8 8 8 9 9 10 11 11 11 11 11 10 9 9 8
21 20 19 19 18 19 22 19 15 13 13 15 17 17 17 17 17 17 16 15 14 14 13 13 14 14 15 15 14 14 13 13 12 12 12 12 13 13 13 12 12 11 10 10 9 9 9 9 9 9 10 11 12 13 13 12 12 11 11 10 9 8
19 20 19 17 15 15 18 19 17 13 12 14 17 18 18 18 19 19 18 16 15 14 13 13 15 15 15 15 15 15 15 15 14 14 14 14 15 14 14 13 13 12 11 11 11 10 10 10 10 10 10 11 13 14 13 13 13 12 11 11 10 9
19 22 22 18 13 12 14 17 18 14 12 13 15 18 19 18 18 20 19 18 17 16 14 14 15 15 16 16 17 17 17 17 17 16 16 16 16 15 15 14 14 13 12 11 12 12 11 10 10 10 10 11 13 14 13 13 13 12 11 11 10 10
23 24 25 22 15 14 15 16 17 15 12 11 13 16 18 19 19 21 21 20 19 18 15 15 16 16 17 18 18 18 18 18 18 18 18 18 17 17 16 16 15 15 14 13 13 13 11 10 10 10 11 12 13 14 13 12 12 12 10 10 10 9
27 28 29 25 18 16 17 16 16 16 13 10 10 13 16 18 20 22 21 21 22 19 16 17 18 18 18 18 19 20 20 20 20 19 19 19 19 18 18 18 18 17 16 15 15 13 11 10 10 10 11 12 13 14 12 11 11 11 10 9 9 9

ECMWFFLT2_500_spd_060.txt.gz
Wind_Speed
23 25 24 25 26 24 23 23 24 25 25 25 24 24 23 22 20 18 17 16 15 14 14 14 15 16 16 17 16 14 12 13 13 10 9 9 9 8 8 9 8 7 6 5 4 4 6 7 6 5 6 6 6 5 4 3 3 2 2 2 3 4
23 25 24 25 25 20 17 18 20 22 23 22 23 24 24 22 19 18 17 15 14 14 14 15 16 16 16 17 17 15 12 13 12 10 9 10 9 9 9 10 9 7 6 5 5 4 6 8 7 6 6 6 5 4 3 3 3 3 2 3 3 4
23 20 14 13 11 9 8 10 13 15 17 17 19 21 23 22 20 18 17 15 14 14 14 15 16 16 17 18 18 15 13 12 11 10 10 10 10 10 10 10 9 7 7 7 7 7 7 7 6 6 7 6 5 4 3 2 3 3 4 4 3 4
16 14 11 11 8 7 8 10 11 11 12 13 13 15 19 20 19 18 16 15 15 14 14 15 15 16 17 18 18 16 13 12 11 10 10 10 10 10 10 10 8 7 7 8 9 9 7 6 6 6 7 7 6 5 4 3 4 4 4 4 4 4
17 16 16 16 12 12 13 14 13 10 8 8 8 9 14 17 16 16 16 16 15 15 15 15 15 15 16 17 18 16 12 11 11 11 10 10 10 10 10 9 8 8 8 8 9 9 6 5 6 7 8 7 6 6 6 4 5 6 5 4 4 4
23 26 25 18 15 14 14 15 14 12 9 7 7 7 11 12 13 14 15 15 15 15 16 16 16 15 15 16 16 14 12 11 11 11 11 10 9 9 9 8 8 8 8 8 9 9 7 6 6 7 7 6 5 6 8 6 5 6 5 4 5 5
22 25 27 22 18 15 14 14 14 13 11 9 8 9 12 12 12 13 14 15 15 15 16 17 16 15 15 14 14 13 12 11 10 10 10 10 9 9 9 8 7 7 8 9 9 9 9 7 4 4 5 4 5 7 10 8 5 6 6 5 6 6
20 19 21 21 18 16 15 14 14 14 14 12 11 12 14 14 14 14 15 15 15 15 16 17 15 15 15 15 15 15 14 12 11 11 11 10 9 9 9 8 7 7 8 9 9 9 10 8 3 1 2 4 5 7 10 10 7 5 7 8 9 9
26 24 22 19 16 13 14 15 16 17 17 15 14 14 15 15 15 15 16 16 15 15 16 17 16 16 16 16 17 16 15 13 11 11 11 10 9 9 9 8 8 7 8 9 10 10 10 6 3 1 3 5 6 6 9 10 8 6 8 11 12 12
29 29 25 20 15 12 13 16 18 19 19 18 16 16 16 15 16 16 16 16 16 16 16 17 17 17 17 17 17 17 15 13 12 12 11 10 10 9 9 9 9 8 8 11 12 11 8 5 3 3 4 6 6 5 6 8 8 6 7 9 11 12
29 29 27 22 16 13 15 18 19 19 19 18 18 17 17 17 17 17 16 16 16 16 16 17 17 16 16 16 17 17 16 14 13 12 12 10 10 9 9 10 9 9 10 13 13 9 6 5 4 5 4 5 6 5 4 5 6 6 7 7 8 10
29 29 27 23 17 14 17 20 20 20 19 18 17 18 19 19 19 19 18 17 16 16 16 15 15 15 15 15 16 17 17 16 14 13 11 10 10 10 10 10 10 11 11 13 12 7 5 5 5 5 5 4 4 3 3 3 3 4 5 6 7 8
28 28 27 23 19 16 18 20 20 20 20 19 17 17 19 20 20 20 19 17 16 16 15 14 15 15 16 15 16 18 18 16 14 12 11 11 10 10 11 12 12 12 11 12 11 7 5 5 5 6 6 5 3 2 2 2 3 3 5 6 7 8
27 27 25 23 20 18 19 21 21 20 21 20 19 18 18 19 20 21 19 18 17 16 15 14 15 16 16 17 17 17 16 15 13 11 11 11 11 12 12 13 13 12 11 11 10 7 5 5 5 6 6 4 1 1 1 1 2 3 5 6 6 7
25 25 24 22 21 20 19 21 22 21 21 21 19 18 19 19 20 21 20 19 18 16 15 14 15 16 17 17 17 18 16 13 11 11 11 11 11 12 14 14 13 11 10 11 10 8 6 5 6 6 5 2 0 0 1 1 2 3 5 4 4 4
23 24 24 23 22 20 19 20 21 21 21 22 21 21 21 21 21 21 21 19 18 17 15 15 15 15 16 18 19 19 16 13 11 11 11 11 11 13 15 14 12 10 10 10 9 6 5 5 6 6 4 1 0 1 1 1 3 4 4 3 3 3
22 23 24 24 22 20 19 19 20 20 21 22 23 23 22 22 22 22 21 20 19 17 16 15 15 14 15 18 20 18 16 14 12 12 11 11 13 14 15 14 11 10 10 9 7 5 4 5 5 5 3 1 1 1 2 3 4 4 3 3 3 2
21 22 23 24 22 20 20 20 20 20 21 22 22 22 22 22 23 23 21 20 18 17 16 16 15 14 15 18 20 18 15 14 14 13 13 13 14 15 15 13 10 9 9 8 6 4 4 4 4 5 4 2 1 2 2 2 3 3 2 2 3 2
20 21 23 24 20 20 22 21 20 20 21 21 21 21 21 21 24 24 22 20 18 17 17 16 16 16 16 17 18 18 15 15 14 14 14 14 14 15 15 13 10 9 9 7 6 5 5 4 4 5 5 3 2 3 3 2 2 2 1 1 2 3
20 21 23 23 20 21 23 21 21 21 20 21 21 21 21 21 24 24 22 21 19 18 17 16 17 18 18 17 16 17 17 16 15 15 15 15 14 15 14 12 10 9 8 7 5 5 5 4 5 5 5 4 3 3 3 2 2 1 1 0 1 1
20 21 23 25 23 21 22 21 22 22 21 23 24 24 23 21 24 24 22 21 19 18 18 17 18 18 18 17 16 17 17 16 15 16 16 15 14 14 13 12 11 9 8 6 5 5 5 5 5 5 5 4 4 4 4 3 2 2 2 2 2 2
22 22 23 26 24 21 21 20 20 21 22 25 27 26 25 23 24 25 22 20 19 18 17 16 17 18 18 18 18 19 18 16 17 17 16 15 14 14 13 12 11 9 8 7 6 6 6 5 5 5 5 5 4 4 4 4 3 3 3 3 2 3
23 23 24 25 24 22 21 21 20 20 20 24 28 27 25 24 24 24 22 20 19 17 16 15 16 16 17 18 20 20 18 17 18 17 17 15 14 13 13 12 11 10 9 7 7 7 6 5 5 5 5 6 5 5 5 5 4 4 4 3 3 3
23 23 24 24 24 22 21 21 19 18 19 23 27 27 24 23 23 23 22 21 20 18 17 17 17 17 17 18 19 20 18 18 19 18 17 15 13 13 13 12 12 11 10 8 7 7 6 6 6 6 6 7 6 6 6 6 5 5 5 4 4 4
22 21 23 25 25 24 22 20 17 16 18 19 23 24 22 21 23 24 22 21 20 19 19 18 17 18 17 17 18 19 18 19 19 18 17 15 14 14 14 13 13 12 10 9 8 8 7 7 7 7 7 8 8 7 7 6 5 6 6 5 5 4
22 21 22 25 27 26 23 20 18 15 15 16 19 20 20 20 23 24 23 22 20 19 19 18 18 18 17 17 19 20 20 20 20 19 17 16 15 15 15 14 12 11 11 10 10 9 8 8 8 8 9 8 8 8 7 6 6 6 6 6 6 5
23 21 22 25 28 27 24 21 19 17 14 17 21 21 19 20 22 22 22 21 19 18 18 18 19 19 18 19 20 21 21 20 20 19 17 17 16 16 15 14 13 12 12 11 11 10 10 9 9 10 10 9 8 8 7 7 7 7 7 7 6 6
23 21 22 26 29 28 24 21 20 19 15 14 18 20 19 19 21 21 21 21 18 18 18 19 19 19 19 20 21 21 20 20 20 19 19 18 17 16 16 15 14 13 12 12 12 11 11 10 10 11 10 8 8 7 7 7 8 8 7 7 7 7
23 22 24 27 28 26 22 20 21 20 15 12 14 16 16 17 20 21 21 20 18 18 19 19 19 20 20 20 20 19 19 20 20 19 19 19 18 18 17 16 15 14 14 13 13 12 12 11 11 11 10 9 8 8 8 8 8 8 8 8 8 8
23 22 25 27 27 24 21 19 20 20 18 15 15 14 13 14 17 20 20 18 17 19 19 20 20 20 21 20 19 18 19 20 20 20 20 19 19 18 17 17 16 15 14 14 15 14 13 12 12 11 10 10 9 9 9 9 9 9 9 9 9 9
22 20 23 26 26 25 23 20 19 20 19 17 16 15 13 12 14 17 19 17 17 18 19 20 21 21 21 20 19 19 20 20 20 20 20 20 20 19 18 17 16 15 15 15 16 15 14 13 12 12 11 11 10 9 10 10 10 11 10 10 10 10
22 21 24 27 27 26 26 23 20 20 20 19 17 15 14 13 13 14 16 16 15 17 18 19 21 22 22 21 21 20 20 20 19 20 20 20 20 18 17 17 16 16 16 16 16 15 15 14 12 12 12 11 10 10 10 11 11 12 12 12 11 11
24 24 26 29 27 25 25 24 21 20 22 20 18 16 16 15 14 13 13 14 15 16 18 19 20 22 23 22 22 21 20 20 20 20 20 20 20 19 18 17 17 18 17 17 15 15 14 14 13 13 12 11 11 11 12 13 13 13 13 13 13 12
26 26 27 29 29 26 25 25 22 21 23 21 16 15 18 18 16 14 13 13 15 17 18 19 21 22 23 22 21 21 21 21 21 21 21 21 20 19 19 19 19 18 17 16 15 15 15 14 14 13 12 12 12 12 13 14 14 14 14 14 13 13
29 30 30 32 32 30 28 26 23 22 24 23 17 13 17 19 18 16 14 15 17 18 19 20 20 22 23 22 21 21 22 22 22 22 22 22 21 20 21 20 20 19 18 17 16 16 15 15 15 14 13 13 13 13 14 14 14 14 15 14 14 13
32 33 33 33 34 33 31 28 24 22 24 25 21 13 13 16 19 18 16 18 20 21 21 20 20 22 22 22 22 22 22 23 23 23 23 22 22 22 22 21 20 20 18 17 16 16 16 15 15 15 14 14 14 14 14 13 13 14 14 14 14 13
33 33 31 30 30 31 30 26 23 22 22 24 22 15 11 13 17 19 19 19 22 23 22 21 22 23 23 23 22 22 22 23 23 23 23 23 23 23 23 22 21 20 19 18 17 16 16 16 16 16 16 16 15 15 14 13 13 13 14 13 13 13

ECMWFFLT2_500_spd_063.txt.gz
Wind_Speed
17 16 16 16 17 18 21 23 25 26 27 28 28 27 26 26 26 26 24 22 20 17 15 14 14 14 15 15 15 16 17 17 17 17 16 16 15 12 10 9 7 4 3 5 6 6 6 6 7 7 6 5 5 4 5 5 5 5 5 5 5 4
18 17 17 16 15 15 18 21 23 24 25 26 26 25 25 25 26 25 24 22 19 16 14 14 14 15 16 16 16 16 17 17 17 17 17 16 15 13 11 10 8 5 3 5 6 7 8 7 8 8 6 5 4 4 5 6 6 6 5 6 6 6
18 17 16 16 12 10 11 13 14 16 18 20 21 21 22 23 24 23 21 20 18 16 14 14 15 15 16 16 15 16 17 17 17 17 16 16 15 14 12 11 8 5 4 5 7 8 9 9 9 9 7 5 4 5 7 6 6 6 6 7 7 7
16 15 16 16 11 6 8 10 13 16 16 17 17 18 19 21 20 20 19 19 17 16 15 15 15 15 15 15 15 15 16 17 17 17 16 15 15 14 13 11 9 6 4 4 6 8 9 9 8 8 7 7 6 6 8 7 7 7 7 7 7 7
15 14 15 16 14 11 14 14 15 17 18 18 17 16 17 18 17 17 17 17 16 16 16 15 15 16 16 15 15 15 16 16 16 16 15 15 15 14 13 12 10 7 4 3 6 9 9 8 8 8 7 9 9 8 8 9 8 7 7 7 7 7
17 15 15 17 17 18 18 15 14 17 18 18 18 17 16 17 16 14 14 16 16 16 16 16 16 16 16 16 15 14 14 15 15 15 15 16 15 14 13 12 11 8 4 3 6 9 8 8 8 8 7 9 10 9 8 9 8 7 7 7 7 6
16 17 18 19 18 17 16 13 14 17 18 19 19 18 17 17 15 13 16 17 16 15 16 17 17 16 16 16 15 14 13 13 14 15 15 16 15 14 13 13 12 8 5 5 7 8 8 8 9 8 8 9 10 9 8 8 7 7 8 9 8 7
17 18 20 21 19 18 17 14 14 16 18 19 20 20 19 18 16 15 18 18 15 15 15 17 17 16 16 16 15 14 13 13 14 16 16 16 15 14 14 14 12 8 6 7 8 8 8 8 9 9 8 9 9 9 9 9 9 8 9 10 11 10
18 18 19 21 21 19 17 15 15 17 19 19 20 21 20 19 18 17 18 17 16 15 15 16 17 17 16 16 16 15 15 15 15 16 17 16 15 14 14 14 12 10 9 9 9 9 8 8 9 8 8 8 8 9 9 9 10 10 10 11 12 12
18 18 19 20 21 19 16 16 18 19 20 20 20 20 20 20 19 18 18 17 17 16 16 17 17 17 17 17 17 16 16 16 15 16 17 16 15 14 14 14 12 12 12 10 10 9 7 8 8 8 8 8 9 9 9 9 10 10 11 11 12 12
18 18 19 19 19 18 16 16 19 22 22 22 21 19 19 20 19 18 17 18 18 18 17 17 18 18 17 18 17 17 17 16 15 16 17 16 15 14 14 14 13 13 13 11 11 9 8 8 8 8 8 8 9 9 8 8 9 9 11 11 11 11
17 18 18 18 18 17 16 16 20 23 24 23 23 21 19 19 19 19 18 19 19 19 18 18 19 18 18 18 18 17 17 16 16 16 16 15 14 14 15 15 14 14 13 12 11 10 9 9 8 8 7 8 8 8 8 8 7 8 10 11 11 11
17 17 17 17 17 16 16 17 19 22 24 24 24 23 22 21 20 19 20 20 20 20 20 20 20 19 19 18 17 16 15 16 16 16 15 15 14 15 15 16 15 14 13 12 12 10 9 9 8 7 7 8 8 7 7 7 7 8 9 10 10 11
17 16 17 18 18 17 17 18 19 22 24 25 24 24 24 24 23 21 20 21 21 21 22 22 20 20 19 18 17 16 15 16 16 15 15 14 14 15 16 16 15 13 13 13 13 12 10 9 8 8 7 7 7 7 7 7 7 8 9 10 10 10
17 16 17 19 18 18 18 19 19 21 23 24 24 24 25 26 25 23 22 22 21 22 23 23 21 20 19 18 17 17 16 16 16 15 15 14 15 15 15 15 14 13 13 14 14 13 11 9 8 8 7 7 7 7 6 6 7 7 9 10 9 9
18 17 19 20 19 18 19 19 19 20 21 22 22 24 27 27 26 25 24 23 23 23 25 24 22 21 19 18 17 17 17 16 16 15 14 15 14 14 14 14 14 13 13 15 15 14 10 9 9 8 7 7 7 7 6 6 6 7 8 8 8 8
19 19 20 20 19 19 19 19 19 19 20 21 21 24 26 26 26 27 26 25 24 25 26 25 23 21 18 17 17 18 18 17 17 15 14 14 14 13 14 14 14 13 14 15 15 13 10 8 8 8 7 7 7 6 6 6 6 7 7 6 7 7
20 20 20 20 20 21 20 19 19 20 20 21 22 24 25 25 26 28 28 27 25 25 26 26 24 21 18 17 17 17 18 19 18 16 14 14 14 13 14 14 14 14 14 15 15 13 10 8 8 8 8 8 7 6 6 6 6 6 6 5 5 5
21 20 19 20 21 22 21 19 19 20 21 23 23 23 24 25 26 27 28 27 25 25 26 26 24 21 18 18 17 17 19 20 19 17 15 14 14 13 14 15 15 14 14 15 14 12 11 9 9 9 8 8 7 6 6 6 6 7 6 5 5 4
21 20 20 20 22 22 21 20 20 20 21 23 23 23 24 25 26 27 26 25 25 25 27 26 24 21 19 19 17 16 19 20 18 17 16 15 14 14 14 15 15 15 15 15 14 13 12 10 9 9 8 8 7 7 7 6 7 7 6 6 5 5
21 20 21 21 22 23 22 22 22 22 21 22 24 23 24 24 25 26 26 25 25 26 27 27 24 21 20 20 17 16 19 20 18 18 17 16 15 14 15 16 16 16 15 15 14 14 13 10 9 9 8 8 8 8 7 7 7 7 6 6 5 4
22 22 22 22 23 23 23 23 23 23 22 22 23 23 23 24 25 26 26 25 25 26 27 26 24 22 22 21 18 18 20 20 20 19 17 16 16 15 15 16 17 16 15 15 15 15 13 11 10 10 9 9 9 9 8 7 7 7 6 6 6 5
23 24 24 23 24 24 24 23 21 22 23 21 22 23 24 26 26 26 26 25 25 26 26 26 25 23 23 22 21 21 21 21 20 19 18 17 17 16 16 17 17 17 16 16 16 15 13 12 11 11 10 10 10 9 8 7 7 8 7 6 7 6
24 24 24 23 24 24 25 24 21 21 23 20 21 23 23 24 27 28 26 24 25 26 25 26 25 23 23 23 22 22 22 21 20 20 19 18 18 17 17 17 17 18 18 17 16 15 13 12 12 12 12 11 10 9 8 8 8 8 8 8 8 8
23 23 23 22 24 25 26 26 23 22 24 22 22 22 21 23 26 27 24 24 27 27 25 25 25 23 22 22 22 22 22 21 21 21 20 19 19 18 17 18 19 19 19 18 16 15 14 13 13 13 12 11 11 10 8 8 8 9 9 9 9 9
22 22 22 22 23 26 27 27 25 24 24 23 22 21 21 23 25 25 23 24 27 27 24 24 24 23 21 20 21 21 21 21 22 22 21 20 20 19 19 20 20 20 19 18 17 15 15 15 14 14 12 11 11 10 8 9 9 10 10 10 10 10
23 22 22 22 24 26 26 26 25 25 24 23 22 19 18 20 22 21 21 23 25 26 24 23 23 23 22 22 22 21 21 22 23 23 22 21 21 21 21 21 20 20 19 18 17 16 16 15 14 14 12 12 11 10 9 10 10 11 11 11 11 11
24 23 21 22 23 25 25 24 23 23 22 22 22 19 15 16 17 17 18 22 24 25 24 23 24 25 25 24 24 23 22 23 23 23 23 22 22 22 22 21 21 20 19 18 17 17 17 16 15 14 13 12 11 10 10 11 11 12 12 12 12 11
21 21 20 22 24 24 23 22 22 21 20 20 21 19 15 14 15 16 18 21 24 26 25 25 26 27 26 24 24 24 23 23 24 24 23 23 23 23 23 22 21 20 19 18 17 18 18 17 16 15 14 12 11 11 12 12 12 12 12 12 12 12
22 22 21 23 25 25 23 22 21 20 19 20 21 20 15 13 14 16 17 20 24 26 28 28 27 27 26 25 24 24 24 23 24 25 23 23 23 24 24 23 21 20 19 18 18 19 19 18 17 16 15 13 13 13 13 12 13 13 13 12 12 12
25 26 27 26 27 27 25 23 22 20 20 20 21 22 19 15 15 15 17 20 23 26 28 28 26 25 24 24 23 24 24 24 25 25 23 23 24 25 24 23 22 21 20 20 20 20 20 19 19 17 16 15 15 14 14 13 14 14 13 13 13 13
25 28 30 30 29 28 27 26 24 23 22 21 20 22 21 18 16 16 17 18 21 24 25 26 26 26 25 24 23 24 24 24 24 24 24 25 25 25 24 23 22 21 21 21 22 22 21 21 20 18 17 16 16 15 14 14 14 14 14 15 14 14
28 28 29 30 29 28 27 28 27 26 24 22 19 20 21 19 18 17 18 19 20 23 24 25 26 28 28 27 25 25 25 25 25 25 25 26 25 24 24 24 23 22 22 22 23 22 21 21 20 19 18 17 17 16 15 14 14 15 15 15 15 15
29 29 28 28 27 28 28 26 28 26 22 19 17 18 21 22 21 20 19 20 21 24 25 25 26 28 28 28 27 26 25 25 26 25 25 25 25 25 24 24 24 23 24 24 23 22 21 20 20 19 19 18 17 16 15 15 15 16 16 16 16 16
28 27 27 26 23 26 27 23 22 22 19 16 15 17 21 23 23 20 20 21 21 23 24 24 25 26 27 28 28 27 26 27 27 26 26 26 25 25 25 24 25 25 25 24 23 22 21 20 20 20 20 19 18 17 17 17 17 17 17 16 16 17
29 26 26 25 20 23 26 24 23 23 21 18 16 17 21 24 22 20 21 23 23 23 24 24 24 25 28 28 28 27 27 28 27 26 26 26 26 26 26 26 26 26 26 25 23 22 21 21 21 21 21 20 20 19 18 18 18 17 16 16 17 18
30 27 27 25 21 21 25 27 28 28 26 24 20 19 22 24 24 21 21 24 26 26 25 25 25 26 29 29 28 27 27 28 27 27 27 27 27 26 27 27 27 27 26 25 24 23 22 22 22 22 22 21 21 20 19 19 19 17 16 16 17 18

ECMWFFLT2_500_spd_069.txt.gz
Wind_Speed
20 19 17 16 14 13 14 14 15 14 14 13 12 11 11 13 15 18 20 21 23 24 24 24 23 22 21 19 17 13 9 8 7 6 7 9 11 11 10 9 9 7 7 9 10 9 9 9 10 11 10 10 10 10 10 10 9 9 9 9 8 8
20 19 17 15 13 12 12 13 13 12 11 9 8 9 12 14 16 18 20 22 23 23 23 23 22 21 20 18 17 15 11 8 8 7 7 9 11 12 10 9 9 8 7 9 10 10 10 10 11 12 12 11 11 10 11 11 10 10 10 10 9 9
20 19 17 15 13 12 11 11 11 11 9 7 8 12 14 15 17 18 19 20 22 23 23 22 21 21 20 18 17 16 13 10 9 8 7 8 11 12 12 10 9 8 8 9 10 10 10 10 11 12 12 12 11 10 11 11 11 11 11 10 10 10
20 20 17 15 13 12 11 11 11 11 9 7 10 13 13 14 16 18 18 19 20 22 22 22 21 21 20 18 17 16 15 12 10 9 8 9 11 13 13 11 10 10 9 10 10 11 11 11 11 12 12 12 11 11 11 12 11 11 11 11 10 10
19 20 17 14 13 13 13 12 11 12 12 11 12 12 13 14 16 18 19 19 20 21 22 22 20 20 19 18 17 17 17 15 13 11 9 9 11 12 13 12 12 11 10 10 11 12 12 11 11 12 12 12 11 11 12 12 11 11 10 10 10 10
19 19 17 15 13 14 13 12 10 11 14 14 15 14 14 15 16 18 19 20 20 21 22 21 20 19 19 18 18 18 18 17 15 13 11 10 10 11 13 13 13 12 12 11 11 13 13 12 12 12 11 11 11 11 11 11 10 10 10 9 10 10
19 19 18 15 14 14 14 13 11 12 14 15 16 17 16 16 17 19 20 21 21 21 21 21 20 18 18 20 20 19 19 18 16 14 12 10 9 11 13 14 14 13 13 12 12 14 14 12 11 12 11 10 10 9 9 9 9 9 9 10 10 10
19 19 18 16 15 15 15 14 13 13 14 15 16 17 16 17 18 20 21 21 21 20 20 20 20 19 20 22 21 20 20 19 18 15 14 12 11 11 13 14 14 14 14 13 13 14 15 12 11 12 11 9 8 8 9 8 8 8 9 11 12 12
19 19 18 16 15 15 15 14 14 14 14 15 16 16 17 18 19 21 21 21 21 21 20 20 21 21 22 22 21 20 20 20 19 17 15 14 13 12 14 15 15 15 14 14 14 15 15 13 11 12 11 8 8 8 9 9 8 8 9 11 12 14
19 19 17 16 16 15 15 15 14 15 15 16 17 18 19 20 21 22 22 22 22 21 20 19 20 22 22 22 21 20 20 21 20 19 17 15 14 14 14 15 16 16 15 15 15 15 15 13 12 12 10 8 7 8 9 9 9 9 10 11 12 13
18 18 18 17 16 15 15 15 15 16 17 17 18 20 21 22 22 23 23 22 21 21 20 20 21 22 23 22 21 21 21 22 21 20 18 17 16 15 15 16 16 16 16 16 15 14 13 12 12 11 10 9 8 9 10 10 9 9 9 11 11 12
17 18 19 18 17 16 16 16 17 17 18 19 21 22 22 23 24 24 24 23 22 21 20 21 21 21 23 23 22 23 23 23 22 21 19 18 16 16 16 17 17 17 17 16 15 13 12 11 12 11 10 9 9 9 10 10 9 8 9 10 11 12
17 18 19 18 17 17 17 18 18 18 19 21 22 22 23 24 24 25 24 24 23 22 21 21 21 22 23 23 24 25 25 24 23 22 20 19 17 16 17 18 17 17 16 15 14 13 11 11 11 11 10 9 9 10 10 11 9 8 9 10 11 13
17 18 18 18 18 18 19 19 19 19 20 21 22 23 23 24 24 25 25 25 24 23 22 21 21 22 23 24 25 27 26 25 24 23 21 19 18 17 17 18 17 17 16 14 14 12 11 10 11 11 10 10 10 10 11 11 10 9 9 10 11 13
17 18 19 20 20 20 20 21 20 20 20 21 22 23 23 23 24 25 25 25 25 24 24 23 22 22 23 25 26 28 27 25 25 24 22 20 19 18 17 18 17 16 15 14 13 12 11 10 11 11 10 11 11 11 11 11 10 9 9 10 11 13
19 20 21 21 21 21 22 22 21 20 21 22 23 23 23 23 23 24 25 25 25 24 25 25 23 23 24 25 27 28 27 26 26 25 23 21 20 19 18 17 16 16 15 13 13 12 11 11 11 11 11 11 11 11 11 10 10 9 9 10 11 12
22 22 22 22 22 23 23 23 22 22 22 23 23 23 23 22 23 24 24 24 24 24 24 24 24 24 25 26 28 29 28 27 27 26 23 21 20 20 19 17 16 16 15 13 13 12 12 11 11 11 11 12 11 11 10 10 10 10 10 10 10 12
24 24 24 24 24 24 24 24 24 23 23 23 23 23 23 23 23 23 23 23 24 24 24 24 23 24 26 28 29 29 28 27 27 26 24 21 21 21 20 18 16 16 15 13 13 12 12 12 11 11 11 12 11 11 11 10 10 10 10 10 11 12
24 24 23 24 24 25 25 25 25 24 24 24 23 23 22 23 23 23 23 23 24 25 25 24 24 24 25 28 30 30 28 27 27 26 24 22 22 22 20 18 17 16 15 14 13 13 13 12 11 12 12 12 11 11 11 10 10 10 10 10 11 12
25 22 22 23 25 26 26 26 25 25 25 25 24 23 23 23 23 22 23 24 25 25 25 26 25 25 26 27 29 30 29 27 27 26 24 23 23 22 20 18 16 15 14 14 13 13 13 12 12 12 12 12 12 12 11 11 11 11 10 11 12 12
24 21 23 26 27 27 27 27 27 26 26 26 26 25 25 24 24 23 23 24 25 25 26 26 25 26 27 27 28 30 28 27 26 25 25 24 24 22 20 19 17 15 15 15 14 14 13 13 13 13 13 12 12 12 12 12 12 11 11 12 12 12
22 23 26 27 28 28 28 28 28 28 28 28 28 27 27 25 23 23 24 24 24 24 25 25 25 26 27 26 27 29 27 26 26 27 27 25 23 22 21 20 17 16 16 15 15 14 13 13 14 13 13 13 13 13 13 13 12 12 12 13 13 12
22 24 25 27 28 28 28 27 29 30 30 30 29 29 28 25 23 23 23 23 23 24 25 25 25 26 26 25 25 27 26 26 27 28 26 24 23 23 22 21 18 16 16 15 15 15 14 14 14 14 14 14 14 14 13 13 13 13 13 13 12 12
23 24 26 28 27 26 27 28 30 30 30 30 30 30 29 26 25 26 26 24 24 25 25 25 26 27 26 25 24 24 25 26 27 27 25 23 23 24 23 22 20 17 16 16 16 16 15 15 15 15 15 15 15 15 14 14 14 14 14 13 12 12
25 27 28 27 25 24 26 28 30 30 29 30 30 29 29 27 25 27 27 25 25 27 26 26 27 27 26 25 23 22 24 25 26 26 25 23 23 24 24 22 21 19 18 17 16 16 16 16 17 17 17 16 16 15 15 15 16 15 14 13 12 12
26 29 25 21 24 25 23 23 24 27 29 30 29 27 29 28 24 24 26 25 26 27 28 28 27 26 26 26 23 22 24 25 26 26 24 23 24 24 23 22 22 21 19 18 17 17 18 18 17 18 18 17 16 16 16 16 17 16 15 13 12 12
28 29 25 21 23 27 26 23 22 24 28 30 30 28 28 28 24 23 25 25 26 27 28 29 26 24 25 24 22 22 23 25 25 25 24 23 23 24 24 24 23 21 19 18 18 19 19 18 18 19 18 17 16 17 17 17 17 17 15 14 13 13
31 33 30 24 21 24 28 29 27 25 26 28 30 29 28 27 25 24 24 26 25 24 28 28 23 22 23 22 21 22 24 25 25 25 24 23 22 23 25 25 22 20 19 18 19 20 19 19 19 19 18 17 17 17 18 17 17 17 16 14 14 14
30 31 30 24 21 23 25 27 27 27 27 27 29 28 26 27 26 24 25 26 24 22 25 25 19 19 21 20 19 21 23 24 24 25 25 23 23 23 24 25 23 21 20 19 20 20 20 19 19 19 19 18 18 18 18 17 17 17 17 15 15 15
29 28 27 24 23 25 26 24 22 24 26 26 28 28 27 27 26 25 27 27 23 20 20 20 17 17 19 18 18 21 23 24 25 26 25 24 24 25 26 25 24 23 22 20 21 22 21 19 19 20 20 19 19 18 18 17 17 18 17 16 15 15
29 27 25 24 24 26 29 28 25 24 24 24 25 27 28 28 26 26 28 26 22 19 18 20 19 17 18 19 19 22 24 24 25 26 26 25 25 26 27 26 26 25 23 22 22 23 21 19 20 21 20 20 19 18 17 17 18 18 17 16 16 16
28 27 24 23 24 26 28 29 30 29 28 26 25 25 28 29 27 27 27 26 22 21 20 21 21 19 19 21 22 23 24 24 25 26 26 25 26 27 27 27 27 26 24 24 24 23 21 20 20 21 21 20 19 18 18 18 18 18 18 17 16 16
25 26 25 23 23 25 28 30 31 32 32 31 29 28 28 29 29 27 26 25 23 22 21 22 23 22 22 23 24 25 26 26 27 29 28 27 28 29 28 27 27 26 26 25 24 23 22 21 20 21 21 20 19 19 18 18 19 19 18 17 16 17
22 23 25 24 23 25 27 30 32 32 32 31 30 30 29 29 30 29 28 27 25 23 23 23 24 24 23 24 25 25 27 27 28 30 30 30 30 30 30 29 27 26 26 25 24 23 22 21 21 22 22 21 20 19 19 19 19 18 17 17 17 18
22 23 24 25 25 25 27 29 32 32 31 30 28 28 29 29 30 31 29 26 25 25 25 23 24 25 25 26 26 26 27 27 28 30 31 32 32 31 31 30 28 26 26 25 25 23 22 22 22 23 23 21 20 20 19 19 18 18 17 17 18 18
23 23 24 26 26 27 27 29 32 32 31 29 28 27 29 29 30 31 29 26 25 27 27 25 25 26 26 27 28 27 28 28 28 29 31 32 32 32 31 30 28 27 26 26 25 24 23 23 23 23 23 22 21 20 19 19 18 18 17 18 19 19
25 25 26 27 27 28 28 29 32 33 31 28 28 29 30 29 29 30 31 29 27 27 28 27 26 26 26 26 27 28 28 28 28 29 30 31 32 32 31 30 29 28 27 27 25 24 23 23 24 24 23 22 21 20 20 19 19 18 18 18 19 20

ECMWFFLT2_500_spd_075.txt.gz
Wind_Speed
18 13 12 15 16 15 15 15 15 16 18 18 18 17 17 17 17 17 16 16 16 16 15 15 16 15 15 15 15 16 17 17 17 15 13 12 13 14 14 14 14 14 14 13 12 11 11 11 10 10 10 10 11 11 12 12 12 11 9 9 9 8
18 14 14 15 15 16 16 17 16 17 18 18 18 18 17 16 17 17 17 17 16 16 15 15 16 16 15 13 13 14 15 16 17 17 15 13 13 13 14 15 15 15 15 15 13 12 12 12 11 11 11 11 11 12 12 12 12 11 10 10 10 9
18 16 16 16 16 15 16 19 19 19 19 18 18 18 17 17 18 19 19 18 16 15 15 15 16 16 15 13 12 13 15 16 17 18 17 15 14 14 14 15 15 16 16 15 14 13 13 13 12 12 12 12 12 12 13 13 12 11 11 11 11 10
18 17 17 17 16 15 18 20 20 20 20 18 18 18 18 19 20 20 20 18 15 16 15 15 17 16 15 13 11 12 14 15 16 17 17 16 16 15 15 15 16 16 16 15 13 14 15 14 13 13 13 13 13 13 13 13 13 13 12 12 12 11
19 19 19 18 17 18 19 20 20 20 18 18 19 18 19 19 19 19 20 18 16 17 16 16 17 17 16 14 12 12 13 15 16 16 16 17 17 17 16 16 16 16 16 14 13 15 16 15 14 13 13 13 14 14 14 13 12 13 13 12 12 11
21 20 20 19 18 19 19 20 20 20 19 19 18 17 19 19 19 19 20 19 18 18 18 17 18 19 18 15 13 13 13 14 15 15 15 18 18 17 17 17 16 16 16 14 14 16 16 15 15 14 14 14 14 14 14 13 12 13 13 13 12 12
21 20 20 19 19 20 20 20 19 18 17 16 16 18 19 18 19 20 20 20 20 20 20 19 18 19 19 17 14 13 13 13 15 15 16 18 18 18 18 18 17 17 16 14 14 16 16 16 15 14 15 15 14 14 14 14 13 13 13 13 12 12
20 21 22 20 20 19 18 18 16 16 16 15 14 16 17 17 17 18 19 21 22 22 20 18 17 18 20 18 15 13 13 13 15 15 17 19 18 18 18 18 18 17 17 16 15 17 17 16 15 14 15 15 15 14 14 14 14 13 13 13 12 12
22 23 20 17 16 16 15 16 16 17 17 18 16 17 19 21 20 20 21 23 24 22 19 19 19 18 19 18 17 15 14 14 15 16 17 19 19 19 19 19 19 18 19 18 18 18 17 16 16 14 14 15 14 14 14 15 14 13 13 13 12 12
26 24 18 16 17 19 19 19 20 18 17 19 21 23 24 25 24 25 26 26 27 26 24 24 22 21 20 19 19 18 15 14 15 17 18 19 20 20 19 19 19 19 20 20 20 19 18 17 16 15 14 14 14 14 15 15 15 13 13 13 12 12
24 22 20 20 21 21 21 20 21 22 23 24 25 26 27 27 27 27 28 28 28 27 27 26 23 22 21 19 20 20 18 16 17 18 20 20 21 21 21 20 19 20 21 21 20 20 19 18 16 15 15 14 14 15 15 15 15 14 13 12 12 11
22 21 23 24 22 20 21 21 22 23 25 25 25 26 27 27 28 28 28 28 27 27 27 26 23 22 20 18 20 21 21 19 19 20 21 21 22 22 22 21 20 20 21 21 21 20 20 19 17 15 15 15 15 16 16 16 15 14 13 12 11 10
24 23 24 23 22 21 21 23 23 23 23 24 24 24 25 26 27 27 27 26 27 26 26 26 24 22 21 20 21 22 23 22 21 21 22 23 24 24 23 22 21 21 21 21 21 20 20 19 18 16 15 15 15 16 16 15 15 14 13 11 10 10
23 22 21 22 22 22 22 22 23 24 23 23 23 23 24 26 26 27 27 26 26 26 27 27 26 23 21 21 21 22 23 23 23 21 22 25 26 26 24 23 22 21 22 22 21 20 20 20 19 17 16 16 16 17 17 15 15 14 13 11 10 10
22 21 21 22 23 23 22 21 22 23 22 21 22 24 25 26 26 27 27 26 26 27 28 27 27 24 22 22 22 22 22 23 24 23 24 26 26 26 26 24 24 23 22 22 21 20 20 20 19 17 17 17 17 18 17 15 15 14 13 12 11 10
22 21 21 22 23 23 22 21 22 22 22 22 22 24 25 26 27 27 27 27 27 28 28 28 28 25 23 24 24 23 22 22 24 25 25 25 25 26 26 26 25 24 24 22 21 20 19 20 18 17 17 18 18 17 17 16 15 14 13 12 11 10
24 22 21 21 21 22 22 21 21 23 23 23 23 25 26 27 28 28 28 29 29 29 30 29 28 26 25 26 26 25 23 23 25 28 27 25 26 27 26 26 26 26 25 24 22 20 19 19 18 18 18 18 18 17 16 16 15 14 13 12 12 11
22 21 19 19 20 21 21 20 21 22 22 22 24 25 26 27 27 28 29 30 30 31 31 30 29 28 27 27 27 27 26 26 26 28 27 26 27 26 26 28 28 27 27 25 23 20 19 19 18 18 18 18 18 17 16 16 15 14 14 13 12 11
19 18 17 17 18 19 20 20 21 23 23 23 25 26 27 28 28 28 28 29 29 31 31 31 30 29 29 28 28 29 29 29 29 29 29 28 27 26 27 29 29 29 28 26 24 21 19 18 18 19 18 18 18 17 16 15 15 14 14 13 12 11
19 19 19 18 18 19 19 20 21 21 21 22 24 26 28 30 29 29 28 28 29 30 30 30 29 29 30 29 29 31 31 30 30 30 29 29 28 27 28 30 30 29 28 27 25 22 19 18 18 18 18 18 18 17 16 15 14 14 13 13 12 11
21 20 20 20 19 19 20 20 20 20 20 21 24 26 28 29 30 30 29 28 29 29 30 31 29 28 30 30 30 32 31 30 30 29 29 29 29 29 30 30 31 30 29 28 26 23 20 19 19 18 18 19 18 17 17 16 15 14 13 13 13 12
22 21 20 20 20 20 20 21 21 21 21 21 24 25 25 27 28 29 29 29 30 30 31 31 29 27 29 30 31 31 31 31 31 31 31 30 29 30 31 31 31 30 29 28 26 23 20 20 20 19 19 19 18 18 18 17 15 14 14 13 13 13
22 22 21 21 21 21 21 21 22 22 20 20 23 25 25 25 25 27 28 28 29 30 31 31 30 28 29 30 31 32 33 34 32 32 31 31 30 30 30 31 31 30 30 28 26 24 21 21 21 19 19 19 19 18 18 17 15 14 14 13 13 13
22 22 22 21 21 21 21 21 21 22 21 22 24 26 25 23 24 26 27 27 26 28 29 30 30 30 29 30 31 32 34 34 33 32 32 31 31 30 28 30 31 30 29 27 26 24 22 22 21 19 19 20 19 18 18 16 15 14 14 14 13 12
22 23 21 20 20 20 21 21 21 22 24 25 25 25 24 24 25 27 28 30 30 30 30 30 30 31 31 31 31 32 33 34 34 34 33 31 32 31 29 31 32 29 28 28 27 25 23 23 21 19 20 20 19 18 17 16 15 14 14 14 13 12
21 22 20 19 20 20 20 21 21 23 25 26 24 23 23 23 25 28 30 32 34 34 33 32 31 30 31 31 31 32 32 33 33 34 35 33 31 31 29 30 31 28 27 28 28 26 24 23 21 20 20 20 20 19 18 17 16 15 15 14 13 13
21 21 20 19 20 20 21 21 22 22 23 25 24 23 23 23 25 28 31 32 33 33 33 33 31 30 30 31 31 32 32 32 33 33 35 35 31 30 29 29 30 28 27 29 29 27 26 25 23 21 21 22 22 20 19 18 16 15 15 14 14 13
22 21 20 19 19 20 21 22 22 22 23 24 25 25 24 24 25 27 30 33 33 32 31 31 31 30 30 31 32 31 31 31 32 32 35 36 33 30 29 28 30 29 28 30 29 27 27 26 24 23 23 22 22 21 20 19 17 15 15 15 15 14
21 20 19 19 20 20 22 23 23 23 24 24 25 26 26 26 26 28 30 33 34 34 32 30 31 30 30 32 32 32 31 31 32 32 34 35 29 26 26 25 27 28 28 28 28 27 26 26 25 24 23 22 22 21 20 19 17 16 16 16 16 15
20 20 19 19 20 21 22 23 24 24 25 25 25 26 27 28 28 29 30 33 34 35 35 33 33 32 31 32 32 33 33 32 32 32 34 33 24 18 21 24 25 26 27 26 27 26 25 26 26 24 22 22 23 22 20 19 17 17 17 17 16 16
19 19 19 20 21 21 22 24 25 25 26 26 27 27 29 29 29 30 31 32 33 34 36 35 35 35 34 33 33 34 34 33 31 31 33 30 21 15 17 23 26 26 27 26 26 27 26 27 27 25 23 23 23 22 21 19 17 18 18 17 17 17
20 19 20 20 21 22 23 24 25 26 26 27 27 29 30 30 30 31 31 33 33 33 35 36 36 36 36 36 36 35 34 33 31 30 29 26 23 21 20 24 27 27 27 26 26 28 28 27 26 25 24 24 24 22 21 19 18 19 19 17 17 17
20 20 20 21 21 23 24 25 25 25 26 26 27 29 30 31 31 31 32 33 34 34 35 37 38 37 36 37 37 35 33 33 31 29 27 25 26 26 24 26 27 26 27 26 25 26 28 27 26 26 25 25 23 21 21 20 19 19 19 18 18 18
21 21 21 22 22 23 23 24 24 24 24 26 27 29 30 31 32 32 33 34 36 37 36 37 37 37 37 37 36 35 34 33 32 30 26 24 25 24 23 25 27 26 26 25 22 22 25 26 26 25 24 24 23 22 22 20 19 20 21 20 18 18
22 22 22 23 23 23 23 24 24 23 24 26 28 30 31 32 33 34 35 35 37 38 37 37 37 36 37 37 36 35 34 32 32 31 26 23 22 22 22 24 26 26 26 25 23 22 25 27 27 25 25 25 24 23 22 21 21 21 21 20 19 19
23 23 23 24 23 24 24 25 25 26 26 27 29 30 32 33 34 36 37 37 38 39 39 39 37 35 35 36 37 35 34 32 31 31 28 23 21 21 22 24 26 27 27 26 26 26 28 28 27 27 27 26 25 23 23 22 22 22 22 21 20 20
23 24 24 24 24 24 25 26 26 27 27 28 28 29 31 32 34 36 38 39 39 40 41 40 39 37 34 33 35 34 33 32 31 31 30 25 22 22 23 24 27 28 28 28 29 29 30 29 28 28 28 27 26 24 24 23 23 23 24 23 21 21